Location: Recife
(8.0585°S, 34.8848°W)
Time: 20:11:19
(UTC-03:00)

S-56A Canister/Altair - Pass Details

Date: 21 April 2026
Orbit: 633 x 2484 km, 38.9° (Epoch: 16 May)

Event Time Altitude Azimuth Distance (km) Brightness Sun altitude
Rises 13:48:29 0° 283° (WNW) 5,697 12.6 47.6°
Reaches altitude 10° 13:53:25 10° 272° (W) 4,414 12.2 46.5°
Maximum altitude 14:02:26 27° 220° (SW) 2,689 10.8 44.5°
Drops below altitude 10° 14:09:09 10° 165° (SSE) 3,202 10.5 43.0°
Sets 14:12:07 0° 152° (SSE) 3,909 10.8 42.3°
